Oklahoma City Wiley Post, OK

10:28 PM CDT on September 22, 2017 (GMT -0500)
Wiley Post

Weather History for KPWA - February, 2014

Change the Weather History Date:

Thursday, February 20, 2014

  Actual Average Record
Temperature  
Mean Temperature 57 °F -  
Max Temperature 71 °F 50 °F 81 °F (2016)
Min Temperature 36 °F 29 °F 18 °F (1955)
Degree Days  
Heating Degree Days 8    
Growing Degree Days 7 (Base 50)    
Moisture  
Dew Point 31 °F    
Average Humidity 43    
Maximum Humidity 78    
Minimum Humidity 16    
Precipitation  
Precipitation 0.00 in - - ()
Sea Level Pressure  
Sea Level Pressure 29.75 in    
Wind  
Wind Speed 20 mph (WNW)    
Max Wind Speed 29 mph    
Max Gust Speed 48 mph    
Visibility 10 miles    
Events      
Averages and records for this station are not official NWS values.
T = Trace of Precipitation, MM = Missing Value Source: NWS Daily Summary

Daily Weather History Graph

Daily Weather History Graph

Search for Another Location

Airport or City:

Trip Planner

Search our weather history database for the weather conditions in past years. The results will help you decide how hot, cold, wet, or windy it might be!

Date:

Astronomy

Feb. 20, 2014 Rise Set
Actual Time 7:11 AM CST 6:17 PM CST
Civil Twilight 6:45 AM CST 6:43 PM CST
Nautical Twilight 6:15 AM CST 7:13 PM CST
Astronomical Twilight 5:46 AM CST 7:42 PM CST
Moon 11:59 PM CST (2/20) 10:07 AM CST (2/20)
Length of Visible Light 11h 57m
Length of Day
11h 06m
Waning Gibbous, 70% of the Moon is Illuminated
Feb 20
Waning Gibbous
Feb 22
Last Quarter
Mar 1
New
Mar 8
First Quarter
Mar 16
Full

Hourly Weather History & Observations

Time (CST) Temp. Windchill Dew Point Humidity Pressure Visibility Wind Dir Wind Speed Gust Speed Precip Events Conditions
12:29 AM 64.4 °F - 55.4 °F 73% 29.49 in 9.0 mi South 17.3 mph - N/A   Partly Cloudy
12:53 AM 63.0 °F - 55.9 °F 78% 29.45 in 8.0 mi South 18.4 mph 25.3 mph N/A   Clear
1:53 AM 63.0 °F - 55.0 °F 75% 29.42 in 8.0 mi South 17.3 mph 27.6 mph N/A   Clear
2:53 AM 68.0 °F - 57.0 °F 68% 29.39 in 10.0 mi South 23.0 mph 35.7 mph N/A   Clear
3:53 AM 71.1 °F - 55.9 °F 59% 29.37 in 10.0 mi SSW 25.3 mph 34.5 mph N/A   Clear
4:53 AM 69.1 °F - 55.0 °F 61% 29.40 in 10.0 mi SSW 23.0 mph 31.1 mph N/A   Clear
5:53 AM 63.0 °F - 53.1 °F 70% 29.44 in 10.0 mi SW 19.6 mph 27.6 mph N/A   Clear
6:53 AM 62.1 °F - 41.0 °F 46% 29.48 in 10.0 mi WSW 19.6 mph 29.9 mph N/A   Partly Cloudy
7:08 AM 60.8 °F - 37.4 °F 42% 29.52 in 10.0 mi West 18.4 mph 31.1 mph N/A   Mostly Cloudy
7:53 AM 55.9 °F - 33.1 °F 42% 29.58 in 10.0 mi WNW 26.5 mph 36.8 mph N/A   Mostly Cloudy
8:00 AM 53.6 °F - 32.0 °F 44% 29.62 in 10.0 mi WNW 27.6 mph 44.9 mph N/A   Scattered Clouds
8:38 AM 50.0 °F - 30.2 °F 47% 29.69 in 10.0 mi WNW 25.3 mph 40.3 mph N/A   Mostly Cloudy
8:45 AM 50.0 °F - 30.2 °F 47% 29.70 in 10.0 mi WNW 27.6 mph 39.1 mph N/A   Scattered Clouds
8:53 AM 50.0 °F - 30.9 °F 48% 29.68 in 10.0 mi NW 27.6 mph 48.3 mph N/A   Partly Cloudy
9:28 AM 48.2 °F - 30.2 °F 50% 29.76 in 10.0 mi NW 28.8 mph 38.0 mph N/A   Overcast
9:53 AM 48.0 °F - 30.0 °F 50% 29.78 in 10.0 mi NW 25.3 mph 39.1 mph N/A   Overcast
10:06 AM 50.0 °F - 28.4 °F 43% 29.80 in 10.0 mi NNW 26.5 mph 40.3 mph N/A   Mostly Cloudy
10:53 AM 51.1 °F - 28.0 °F 41% 29.84 in 10.0 mi NW 26.5 mph 43.7 mph N/A   Mostly Cloudy
11:53 AM 51.1 °F - 28.9 °F 43% 29.89 in 10.0 mi NNW 25.3 mph 38.0 mph N/A   Scattered Clouds
12:53 PM 57.0 °F - 28.9 °F 34% 29.89 in 10.0 mi NNW 21.9 mph 35.7 mph N/A   Scattered Clouds
1:53 PM 57.0 °F - 25.0 °F 29% 29.90 in 10.0 mi NW 20.7 mph 33.4 mph N/A   Partly Cloudy
2:53 PM 59.0 °F - 17.1 °F 20% 29.91 in 10.0 mi NW 20.7 mph 29.9 mph N/A   Clear
3:53 PM 59.0 °F - 16.0 °F 19% 29.93 in 10.0 mi WNW 23.0 mph 29.9 mph N/A   Clear
4:53 PM 57.0 °F - 12.0 °F 17% 29.95 in 10.0 mi NW 16.1 mph 26.5 mph N/A   Clear
5:53 PM 54.0 °F - 8.1 °F 16% 29.99 in 10.0 mi NW 18.4 mph 27.6 mph N/A   Clear
6:53 PM 50.0 °F - 15.1 °F 25% 30.02 in 10.0 mi NW 10.4 mph - N/A   Clear
7:53 PM 46.0 °F 42.5 °F 17.1 °F 31% 30.05 in 10.0 mi WNW 6.9 mph - N/A   Clear
8:53 PM 45.0 °F 40.6 °F 15.1 °F 30% 30.07 in 10.0 mi WNW 8.1 mph - N/A   Clear
9:53 PM 43.0 °F 37.7 °F 12.0 °F 28% 30.09 in 10.0 mi WNW 9.2 mph - N/A   Clear
10:53 PM 43.0 °F 38.2 °F 10.0 °F 26% 30.09 in 10.0 mi WNW 8.1 mph - N/A   Clear
11:53 PM 36.0 °F 31.1 °F 12.0 °F 37% 30.10 in 10.0 mi SW 5.8 mph - N/A   Clear